Wind_Speed
19 21 24 29 29 28 28 23 20 20 15 17 14 15 17 16 16 11 11 5 5 12 21 22 23 23 20 16 21 21 20 18
23 24 27 23 22 27 28 28 25 23 22 19 17 16 18 17 16 15 13 10 7 8 11 17 21 25 23 26 22 22 21 22
20 21 20 21 22 25 24 26 26 27 25 21 21 21 21 19 18 16 15 15 12 9 13 14 17 22 28 26 28 19 19 23
18 15 15 17 22 22 22 19 18 20 20 22 25 24 24 23 22 22 22 21 15 12 13 13 15 20 25 34 27 26 16 25
20 20 20 18 14 15 19 19 21 19 17 20 21 22 22 21 22 21 22 23 24 20 19 18 16 20 19 30 33 28 32 30
17 17 22 22 21 17 16 16 16 16 16 18 19 21 21 20 21 20 16 20 23 23 23 20 20 18 17 15 27 32 34 38
16 12 16 22 24 25 22 21 20 20 19 20 21 23 23 22 22 22 23 21 22 24 25 23 23 22 20 20 22 28 33 36
21 19 21 28 31 28 27 26 23 24 26 26 26 27 26 22 21 22 26 27 27 25 29 30 25 23 23 23 25 26 23 32
24 20 23 29 32 29 27 27 27 29 31 32 32 31 30 27 27 27 26 26 27 24 26 32 32 29 32 31 29 28 29 31
27 25 25 25 29 30 28 26 27 30 31 32 32 28 27 30 28 25 22 26 26 24 23 28 30 32 32 32 28 28 30 31
30 27 25 23 24 26 27 27 28 28 26 27 28 28 30 29 26 25 26 26 28 30 26 23 27 30 31 30 28 27 25 30
30 26 25 23 24 25 25 25 27 26 27 28 28 26 28 25 25 27 28 27 27 28 29 28 25 27 31 32 31 30 27 33
30 23 20 20 19 22 23 24 25 26 27 27 27 25 22 25 28 31 32 31 31 30 30 32 30 27 28 32 33 37 34 28
29 25 24 21 19 19 23 23 22 23 24 25 24 25 28 28 28 31 33 33 29 30 29 29 28 29 27 27 32 34 35 29
34 29 25 21 19 21 23 23 22 21 22 22 22 21 24 30 25 29 24 30 27 26 26 25 27 26 26 27 27 28 30 30
27 23 22 22 22 19 18 20 18 20 20 17 17 16 15 19 22 17 9 17 19 19 17 24 25 23 21 19 18 18 24 26
32 24 22 22 19 14 13 13 16 19 14 13 10 12 13 12 12 8 4 6 11 16 16 23 23 21 19 14 11 8 8 17
40 20 21 18 15 18 14 12 13 16 18 15 15 14 12 9 8 3 2 3 5 8 16 18 16 15 16 12 11 7 5 6
31 27 25 20 21 18 15 13 15 15 15 14 14 12 10 7 7 10 10 9 11 10 13 14 14 15 15 10 8 6 7 7
Wind_Direction
212 213 219 235 241 241 247 251 228 238 224 200 207 216 233 241 260 272 280 270 231 222 226 229 237 227 220 214 210 203 213 203
204 219 226 233 233 229 235 239 235 238 240 221 219 231 241 253 263 273 266 260 253 243 247 249 249 239 230 220 230 216 211 213
208 230 234 230 227 228 228 234 239 242 247 247 243 242 248 253 255 254 258 265 252 240 233 252 256 254 238 237 222 224 234 221
209 229 241 241 230 223 220 224 237 236 240 243 247 255 252 254 251 251 256 269 266 251 245 252 252 254 247 254 217 232 263 226
215 221 230 238 235 236 239 240 240 244 245 252 259 268 274 277 274 271 267 266 268 264 263 256 254 264 268 251 245 230 246 238
235 256 253 247 250 241 237 242 246 258 266 271 274 279 281 282 278 277 277 276 269 268 261 262 259 261 267 277 246 238 243 234
231 272 257 248 249 251 253 256 259 265 266 273 277 276 278 277 276 280 276 273 258 251 247 252 250 251 250 260 263 254 269 257
250 249 247 250 251 252 260 271 276 281 285 287 286 285 287 287 285 279 277 275 271 254 246 246 246 249 249 262 262 257 273 251
258 271 267 252 257 261 262 268 273 276 279 284 286 291 295 295 289 280 275 277 277 270 261 249 254 257 254 259 264 259 255 256
267 274 268 262 257 258 258 261 266 270 274 279 282 287 284 283 281 276 275 279 276 275 269 260 256 256 255 255 261 262 255 254
266 271 274 261 256 255 255 259 266 273 279 276 272 270 270 274 277 274 274 271 269 275 274 269 261 254 252 249 252 251 257 255
274 267 266 266 267 264 264 268 271 273 269 271 276 279 273 280 280 278 273 267 266 268 273 274 268 253 249 246 246 246 259 262
275 268 269 266 267 260 261 260 268 272 276 279 283 281 276 282 280 278 274 273 271 265 264 266 268 268 253 245 249 249 254 271
260 265 266 273 263 261 261 265 270 272 277 281 277 276 286 287 289 288 267 258 265 267 264 265 260 258 257 256 253 254 246 271
250 260 261 282 268 278 269 269 273 275 268 284 286 285 286 283 289 301 267 255 263 264 262 252 241 247 246 245 244 243 249 265
252 259 265 282 288 286 270 267 269 262 264 274 276 290 298 300 296 294 262 259 254 248 254 232 237 249 247 243 247 257 264 266
252 255 275 275 282 286 272 273 269 263 253 274 249 294 298 316 335 317 303 272 263 250 240 223 239 260 261 260 274 267 264 277
259 261 263 271 267 276 277 265 276 262 254 266 276 277 283 314 338 19 61 318 273 240 233 233 243 265 265 276 305 267 258 236
250 258 259 260 273 287 265 273 258 258 257 258 261 248 263 287 270 254 256 255 262 260 251 251 249 258 275 262 269 294 245 215
Height
5837 5840 5843 5843 5844 5848 5849 5852 5856 5856 5861 5863 5864 5865 5866 5867 5868 5870 5870 5873 5873 5874 5874 5874 5876 5878 5879 5880 5882 5885 5889 5890
5834 5836 5837 5840 5841 5842 5844 5846 5849 5852 5854 5859 5861 5863 5865 5866 5867 5867 5868 5868 5870 5872 5873 5873 5873 5875 5875 5875 5879 5880 5884 5886
5832 5832 5834 5835 5835 5837 5840 5843 5844 5848 5851 5855 5857 5859 5860 5862 5862 5863 5864 5864 5866 5867 5868 5868 5868 5870 5872 5871 5874 5877 5879 5882
5828 5830 5831 5832 5832 5834 5836 5840 5841 5843 5847 5847 5849 5852 5854 5855 5857 5859 5860 5860 5861 5863 5863 5863 5863 5863 5864 5865 5869 5867 5869 5877
5823 5827 5828 5828 5830 5832 5834 5837 5838 5841 5845 5845 5845 5846 5847 5848 5849 5851 5853 5853 5853 5855 5857 5858 5860 5860 5860 5861 5861 5865 5869 5870
5821 5823 5824 5826 5827 5829 5831 5833 5835 5837 5839 5840 5841 5842 5842 5843 5842 5844 5846 5846 5846 5847 5848 5850 5852 5854 5853 5854 5854 5858 5859 5865
5816 5817 5818 5820 5822 5823 5825 5827 5829 5831 5833 5834 5834 5834 5836 5837 5837 5837 5837 5839 5840 5841 5842 5843 5845 5848 5850 5850 5849 5850 5850 5855
5812 5814 5815 5815 5816 5817 5819 5820 5822 5823 5824 5826 5828 5828 5830 5831 5831 5830 5829 5829 5830 5833 5834 5836 5838 5840 5842 5843 5844 5845 5847 5848
5805 5807 5808 5809 5810 5812 5814 5815 5818 5818 5819 5820 5820 5821 5821 5821 5822 5821 5820 5819 5820 5823 5825 5827 5828 5832 5834 5835 5837 5838 5838 5839
5799 5801 5802 5803 5803 5805 5808 5811 5812 5812 5812 5813 5814 5814 5814 5812 5811 5811 5811 5811 5810 5812 5814 5816 5818 5820 5823 5826 5827 5828 5830 5830
5793 5795 5796 5798 5798 5800 5802 5805 5804 5805 5806 5805 5804 5805 5804 5802 5803 5803 5803 5803 5802 5802 5803 5806 5808 5810 5812 5814 5817 5819 5821 5822
5789 5790 5791 5793 5794 5795 5796 5798 5796 5796 5797 5797 5797 5797 5795 5795 5795 5794 5793 5793 5793 5794 5795 5796 5798 5800 5800 5803 5806 5808 5811 5813
5782 5785 5788 5789 5789 5789 5791 5792 5789 5790 5790 5790 5789 5789 5788 5787 5786 5785 5784 5784 5783 5784 5786 5787 5788 5788 5790 5793 5796 5797 5800 5801
5777 5780 5785 5784 5784 5784 5783 5782 5783 5784 5784 5783 5782 5781 5779 5778 5776 5774 5773 5773 5775 5777 5777 5778 5781 5781 5782 5784 5785 5786 5787 5790
5772 5774 5778 5779 5779 5777 5776 5777 5777 5777 5777 5777 5775 5773 5770 5769 5767 5764 5762 5764 5768 5770 5770 5771 5773 5774 5775 5775 5777 5778 5778 5779
5764 5769 5771 5772 5771 5770 5770 5771 5771 5771 5772 5772 5769 5767 5764 5762 5759 5754 5753 5757 5761 5763 5764 5765 5768 5769 5768 5769 5769 5769 5769 5769
5757 5762 5765 5766 5765 5765 5764 5765 5766 5766 5766 5765 5763 5762 5760 5757 5754 5752 5751 5753 5756 5758 5759 5761 5763 5765 5765 5764 5764 5764 5761 5760
5750 5756 5759 5760 5759 5760 5759 5759 5759 5760 5760 5760 5759 5758 5757 5755 5754 5753 5753 5753 5755 5756 5759 5759 5761 5762 5761 5761 5759 5758 5757 5757
5743 5748 5752 5754 5754 5753 5754 5754 5755 5755 5755 5755 5755 5754 5754 5753 5754 5754 5753 5754 5755 5756 5757 5758 5758 5759 5757 5757 5758 5757 5757 5755